Location: City of Moscow
(46.7306°N, 116.9989°W)
Time: 03:21:28
(UTC+00:00)

Cosmos 1626 Rocket - Pass Details

Date: 15 March 2026
Orbit: 596 x 624 km, 82.5° (Epoch: 13 April)

Event Time Altitude Azimuth Distance (km) Brightness Sun altitude
Rises 02:46:45 0° 226° (SW) 2,896 7.6 -10.1°
Reaches altitude 10° 02:49:29 10° 244° (WSW) 1,996 7.1 -10.5°
Maximum altitude 02:52:45 20° 291° (WNW) 1,457 6.6 -11.1°
Drops below altitude 10° 02:56:02 10° 339° (NNW) 2,006 6.6 -11.7°
Sets 02:58:49 0° 357° (N) 2,916 7.2 -12.1°
